Total_Precipitation_Accumulation
1.46 1.67 1.35 0.78 0.62 0.53 0.43 0.35 0.31 0.33 0.33 0.36 0.35 0.39 0.41 0.38 0.38 0.42 0.51 0.59 0.65 0.63 0.67 0.86 1.08 1.35 1.60 1.95 2.15 2.12 2.05 2.18 2.40 2.23 1.98 1.78 1.56 1.37 1.17 0.97 0.84 0.74 0.65 0.58
1.47 1.25 0.74 0.53 0.58 0.61 0.56 0.49 0.39 0.38 0.36 0.40 0.37 0.39 0.39 0.39 0.36 0.39 0.47 0.54 0.54 0.50 0.59 0.78 0.95 1.17 1.35 1.78 2.06 2.08 2.13 2.24 2.40 2.26 2.10 2.03 1.98 1.78 1.57 1.43 1.12 0.88 0.75 0.67
1.09 0.76 0.63 0.76 0.80 0.75 0.65 0.55 0.44 0.43 0.45 0.42 0.40 0.42 0.35 0.34 0.31 0.33 0.42 0.49 0.48 0.46 0.54 0.66 0.81 0.99 1.07 1.37 1.76 1.91 1.94 2.07 2.20 2.37 2.61 2.57 2.43 2.11 1.68 1.39 1.27 1.14 1.04 0.93
0.91 0.64 0.78 1.01 0.96 0.75 0.66 0.44 0.44 0.45 0.56 0.56 0.44 0.55 0.37 0.33 0.34 0.35 0.43 0.47 0.47 0.48 0.51 0.60 0.70 0.80 0.89 1.04 1.37 1.70 1.88 1.99 2.01 2.10 2.32 2.43 2.27 1.92 1.59 1.40 1.38 1.40 1.31 1.22
0.90 0.67 0.84 1.08 0.90 0.72 0.60 0.42 0.50 0.56 0.62 0.62 0.44 0.51 0.42 0.35 0.41 0.42 0.45 0.49 0.49 0.51 0.53 0.57 0.60 0.63 0.71 0.85 1.14 1.47 1.72 1.93 1.92 1.85 1.93 2.13 2.22 2.11 1.94 1.76 1.58 1.47 1.41 1.30
0.67 0.69 0.88 0.95 0.81 0.77 0.67 0.69 0.79 0.87 1.03 0.98 0.44 0.43 0.38 0.39 0.48 0.47 0.45 0.52 0.54 0.59 0.60 0.59 0.56 0.56 0.63 0.70 0.86 1.16 1.43 1.72 1.87 1.82 1.84 1.89 1.94 2.04 1.96 1.79 1.70 1.56 1.50 1.41
0.93 0.93 0.89 0.95 1.14 1.09 1.08 1.41 1.71 1.67 1.47 0.84 0.27 0.29 0.39 0.38 0.43 0.45 0.46 0.50 0.50 0.49 0.49 0.49 0.49 0.49 0.56 0.62 0.68 0.89 1.04 1.30 1.55 1.68 1.72 1.76 1.80 1.86 1.85 1.76 1.69 1.66 1.51 1.39
1.01 1.10 0.85 0.92 1.22 1.24 1.08 1.26 1.30 1.10 0.73 0.37 0.21 0.32 0.40 0.35 0.36 0.39 0.42 0.45 0.48 0.50 0.49 0.47 0.47 0.50 0.58 0.59 0.64 0.74 0.84 0.98 1.19 1.35 1.42 1.46 1.56 1.62 1.60 1.60 1.54 1.51 1.45 1.37
0.76 0.84 0.67 0.70 0.86 0.97 1.01 0.92 0.71 0.84 0.60 0.41 0.29 0.26 0.28 0.28 0.32 0.35 0.35 0.36 0.41 0.43 0.43 0.44 0.44 0.49 0.54 0.56 0.58 0.64 0.72 0.76 0.85 0.99 1.14 1.23 1.26 1.26 1.25 1.27 1.25 1.27 1.29 1.25
0.70 0.82 0.72 0.76 0.95 0.98 0.90 0.76 0.81 1.04 0.83 0.56 0.29 0.22 0.33 0.33 0.33 0.32 0.31 0.30 0.35 0.39 0.41 0.41 0.41 0.43 0.46 0.48 0.48 0.53 0.58 0.57 0.61 0.69 0.81 0.92 1.01 1.02 1.05 1.07 1.03 0.98 1.01 1.04
0.60 0.82 0.92 0.91 1.00 0.80 0.70 0.80 0.85 0.84 0.65 0.64 0.42 0.31 0.32 0.33 0.35 0.34 0.33 0.32 0.34 0.36 0.40 0.41 0.41 0.42 0.42 0.42 0.41 0.43 0.42 0.43 0.45 0.52 0.61 0.64 0.74 0.81 0.86 0.88 0.84 0.82 0.78 0.79
0.46 0.69 0.89 0.73 0.55 0.49 0.54 0.54 0.65 0.86 0.66 0.53 0.48 0.32 0.23 0.26 0.29 0.32 0.35 0.32 0.31 0.33 0.37 0.40 0.42 0.40 0.40 0.40 0.40 0.41 0.38 0.37 0.37 0.43 0.48 0.49 0.56 0.65 0.67 0.72 0.70 0.68 0.68 0.64
0.50 0.65 0.85 0.74 0.62 0.58 0.56 0.42 0.50 0.71 0.86 0.65 0.57 0.35 0.20 0.23 0.27 0.30 0.34 0.32 0.31 0.31 0.34 0.35 0.35 0.37 0.38 0.38 0.38 0.42 0.41 0.36 0.34 0.36 0.39 0.40 0.44 0.51 0.54 0.57 0.62 0.57 0.59 0.56
0.62 0.59 0.67 0.67 0.54 0.53 0.50 0.41 0.50 0.86 1.01 0.58 0.38 0.30 0.23 0.25 0.26 0.27 0.29 0.30 0.29 0.27 0.26 0.27 0.28 0.31 0.34 0.36 0.38 0.39 0.40 0.38 0.37 0.34 0.34 0.35 0.38 0.45 0.47 0.46 0.49 0.50 0.53 0.57
0.54 0.58 0.45 0.39 0.29 0.32 0.38 0.42 0.51 0.68 0.59 0.54 0.31 0.25 0.26 0.25 0.27 0.26 0.24 0.24 0.21 0.18 0.18 0.19 0.20 0.22 0.26 0.30 0.32 0.31 0.32 0.34 0.37 0.36 0.35 0.34 0.35 0.40 0.44 0.41 0.42 0.43 0.45 0.54
0.34 0.45 0.40 0.35 0.24 0.27 0.38 0.39 0.40 0.45 0.45 0.45 0.33 0.28 0.22 0.23 0.24 0.22 0.18 0.16 0.13 0.11 0.11 0.10 0.10 0.12 0.13 0.17 0.21 0.23 0.24 0.28 0.34 0.36 0.34 0.32 0.33 0.36 0.41 0.41 0.42 0.43 0.44 0.50
0.24 0.33 0.45 0.37 0.22 0.29 0.39 0.33 0.37 0.41 0.41 0.41 0.46 0.37 0.23 0.20 0.19 0.16 0.16 0.13 0.11 0.09 0.09 0.08 0.07 0.08 0.09 0.10 0.12 0.14 0.15 0.18 0.23 0.29 0.32 0.32 0.33 0.36 0.40 0.43 0.46 0.52 0.58 0.60
0.18 0.27 0.47 0.38 0.26 0.32 0.27 0.18 0.23 0.32 0.32 0.29 0.32 0.28 0.21 0.18 0.17 0.15 0.14 0.12 0.09 0.09 0.10 0.10 0.09 0.09 0.09 0.10 0.10 0.11 0.12 0.15 0.18 0.21 0.26 0.28 0.29 0.33 0.36 0.44 0.50 0.56 0.60 0.63
0.12 0.29 0.51 0.40 0.27 0.19 0.17 0.17 0.23 0.32 0.36 0.27 0.24 0.19 0.19 0.16 0.13 0.14 0.12 0.11 0.10 0.09 0.09 0.09 0.09 0.09 0.09 0.10 0.11 0.12 0.15 0.19 0.21 0.25 0.29 0.31 0.36 0.39 0.41 0.46 0.48 0.52 0.57 0.60
0.14 0.24 0.47 0.40 0.33 0.22 0.17 0.11 0.13 0.25 0.41 0.23 0.18 0.17 0.17 0.14 0.19 0.17 0.12 0.10 0.11 0.09 0.08 0.09 0.11 0.11 0.12 0.14 0.16 0.18 0.20 0.23 0.25 0.30 0.35 0.36 0.42 0.49 0.50 0.52 0.50 0.47 0.48 0.53
0.22 0.32 0.39 0.33 0.29 0.13 0.10 0.07 0.10 0.30 0.41 0.20 0.15 0.15 0.14 0.14 0.17 0.15 0.12 0.10 0.09 0.09 0.09 0.10 0.11 0.14 0.18 0.23 0.26 0.27 0.29 0.32 0.32 0.33 0.36 0.36 0.39 0.43 0.44 0.43 0.44 0.42 0.41 0.41
0.12 0.17 0.15 0.16 0.22 0.16 0.09 0.09 0.17 0.22 0.13 0.10 0.09 0.10 0.10 0.13 0.13 0.13 0.13 0.11 0.10 0.13 0.13 0.12 0.14 0.15 0.17 0.25 0.31 0.32 0.31 0.32 0.31 0.30 0.33 0.34 0.36 0.38 0.38 0.37 0.39 0.38 0.35 0.33
0.08 0.11 0.13 0.11 0.13 0.13 0.11 0.13 0.14 0.11 0.08 0.07 0.07 0.07 0.08 0.12 0.13 0.13 0.13 0.11 0.10 0.12 0.13 0.12 0.13 0.13 0.15 0.20 0.26 0.33 0.33 0.31 0.31 0.31 0.33 0.32 0.31 0.32 0.34 0.33 0.33 0.32 0.28 0.25
0.09 0.07 0.09 0.11 0.10 0.09 0.10 0.10 0.10 0.10 0.08 0.07 0.06 0.05 0.05 0.08 0.11 0.13 0.12 0.12 0.11 0.11 0.12 0.13 0.12 0.13 0.16 0.18 0.20 0.24 0.26 0.27 0.28 0.28 0.29 0.31 0.31 0.29 0.28 0.28 0.28 0.28 0.27 0.25
0.09 0.09 0.09 0.13 0.10 0.08 0.09 0.09 0.07 0.07 0.06 0.05 0.04 0.04 0.05 0.08 0.10 0.12 0.13 0.14 0.13 0.13 0.13 0.14 0.14 0.14 0.15 0.15 0.16 0.16 0.17 0.19 0.23 0.25 0.26 0.25 0.26 0.27 0.26 0.25 0.25 0.27 0.26 0.28
0.09 0.09 0.11 0.13 0.09 0.09 0.09 0.07 0.06 0.05 0.04 0.04 0.04 0.04 0.05 0.07 0.08 0.07 0.08 0.11 0.14 0.14 0.14 0.14 0.14 0.14 0.15 0.15 0.15 0.15 0.16 0.17 0.19 0.22 0.23 0.24 0.24 0.24 0.24 0.24 0.23 0.25 0.26 0.29